User: anonymous   Login
Location: Nashville
(36.1660°N, 86.7840°W)
Time: 23:38:49
(UTC-05:00)
Language:

SR - Orbit

View from above orbital plane
View from above orbital plane
View from above satellite
View from above satellite

Ground track
Ground track

The orbit data is extracted from the following two-line orbital elements,

1 00046U 60007B   22221.76980511  .00000194  00000-0  60194-4 0  9997
2 00046  66.6897  89.4606 0216699 267.1685  90.4606 14.49749571252639
Epoch (UTC): 09 August 2022 18:28:31
Eccentricity: 0.0216699
inclination: 66.6897°
perigee height: 572 km
apogee height: 880 km
right ascension of ascending node: 89.4606°
argument of perigee: 267.1685°
revolutions per day: 14.49749571
mean anomaly at epoch: 90.4606°
orbit number at epoch: 25263

The dashed part of the orbit path shows where the satellite is in the earth's shadow,  

DLR